Location: Newark
(44.2003°N, 3.2583°E)
Time: 03:40:50
(UTC+00:00)

Courier 1B Rocket - Pass Details

Date: 27 October 2019
Orbit: 920 x 1202 km, 28.2° (Epoch: 19 November)

Event Time Altitude Azimuth Distance (km) Brightness Sun altitude
Exits shadow 03:42:09 14° 178° (S) 2,298 6.9 -28.2°
Drops below altitude 10° 03:44:17 10° 158° (SSE) 2,601 7.4 -27.8°
Sets 03:48:02 0° 136° (SE) 3,547 8.4 -27.2°
